Anniston, AL

2:45 PM CST on November 12, 2019 (GMT -0600)
Anniston Metro

Weather History for KANB - September, 2019

Change the Weather History Date:

Saturday, September 7, 2019

  Actual Average Record
Temperature  
Mean Temperature 81 °F 76 °F  
Max Temperature 96 °F 87 °F 98 °F (1954)
Min Temperature 66 °F 66 °F 48 °F (2017)
Degree Days  
Heating Degree Days 0    
Month to date heating degree days 0  
Since 1 July heating degree days 0  
Cooling Degree Days 16    
Growing Degree Days 31 (Base 50)    
Moisture  
Dew Point 68 °F    
Average Humidity 67    
Maximum Humidity 93    
Minimum Humidity 40    
Precipitation  
Precipitation 0.00 in 0.11 in 1.93 in (1950)
Month to date precipitation T 0.70  
Year to date precipitation 39.17 35.62  
Sea Level Pressure  
Sea Level Pressure 29.94 in    
Wind  
Wind Speed 4 mph (West)    
Max Wind Speed 13 mph    
Max Gust Speed 17 mph    
Visibility 10 miles    
Events      
T = Trace of Precipitation, MM = Missing Value Source: NWS Daily Summary

Daily Weather History Graph

Daily Weather History Graph

Search for Another Location

Airport or City:

Astronomy

Sep. 07, 2019 Rise Set
Actual Time 6:21 AM CDT 7:01 PM CDT
Civil Twilight 5:56 AM CDT 7:26 PM CDT
Nautical Twilight 5:26 AM CDT 7:55 PM CDT
Astronomical Twilight 4:56 AM CDT 8:26 PM CDT
Moon 3:02 PM CDT (9/7) 12:25 AM CDT (9/7)
Length of Visible Light 13h 30m
Length of Day
12h 39m
Waxing Gibbous, 66% of the Moon is Illuminated
Sep 7
Waxing Gibbous
Sep 13
Full
Sep 21
Last Quarter
Sep 28
New
Oct 5
First Quarter

Hourly Weather History & Observations

Time (CDT) Temp. Heat Index Dew Point Humidity Pressure Visibility Wind Dir Wind Speed Gust Speed Precip Events Conditions
12:53 AM 69.1 °F - 63.0 °F 81% 29.96 in 10.0 mi Calm Calm - N/A   Clear
1:53 AM 68.0 °F - 63.0 °F 84% 29.95 in 10.0 mi Calm Calm - N/A   Clear
2:53 AM 66.9 °F - 63.0 °F 87% 29.95 in 10.0 mi Calm Calm - N/A   Clear
3:53 AM 66.0 °F - 64.0 °F 93% 29.95 in 10.0 mi Calm Calm - N/A   Clear
4:53 AM 66.0 °F - 64.0 °F 93% 29.95 in 10.0 mi SW 3.5 mph - N/A   Clear
5:53 AM 66.0 °F - 63.0 °F 90% 29.96 in 10.0 mi WSW 4.6 mph - N/A   Clear
6:53 AM 66.9 °F - 64.0 °F 90% 29.98 in 10.0 mi WSW 3.5 mph - N/A   Clear
7:53 AM 73.0 °F - 66.9 °F 81% 29.99 in 10.0 mi Calm Calm - N/A   Clear
8:53 AM 79.0 °F - 70.0 °F 74% 29.99 in 10.0 mi WSW 4.6 mph - N/A   Clear
9:53 AM 84.0 °F 89.6 °F 72.0 °F 67% 29.98 in 10.0 mi Variable 4.6 mph - N/A   Clear
10:53 AM 87.1 °F 94.5 °F 73.0 °F 63% 29.97 in 10.0 mi South 3.5 mph - N/A   Clear
11:53 AM 91.9 °F 99.5 °F 72.0 °F 52% 29.95 in 10.0 mi Variable 3.5 mph - N/A   Scattered Clouds
12:53 PM 93.0 °F 99.0 °F 70.0 °F 47% 29.94 in 10.0 mi Variable 6.9 mph - N/A   Partly Cloudy
1:53 PM 93.0 °F 99.0 °F 70.0 °F 47% 29.91 in 10.0 mi West 10.4 mph - N/A   Scattered Clouds
2:53 PM 96.1 °F 101.0 °F 68.0 °F 40% 29.89 in 10.0 mi West 9.2 mph - N/A   Clear
3:53 PM 95.0 °F 100.7 °F 69.1 °F 43% 29.88 in 10.0 mi West 10.4 mph - N/A   Clear
4:53 PM 93.9 °F 100.3 °F 70.0 °F 46% 29.88 in 10.0 mi West 5.8 mph - N/A   Partly Cloudy
5:53 PM 93.0 °F 97.9 °F 69.1 °F 45% 29.89 in 10.0 mi NNW 5.8 mph - N/A   Clear
6:53 PM 91.0 °F 95.6 °F 69.1 °F 48% 29.90 in 10.0 mi NNW 4.6 mph - N/A   Clear
7:53 PM 88.0 °F 92.1 °F 69.1 °F 53% 29.91 in 10.0 mi NNW 4.6 mph - N/A   Clear
8:53 PM 80.1 °F 83.6 °F 71.1 °F 74% 29.93 in 10.0 mi Variable 4.6 mph - N/A   Partly Cloudy
9:53 PM 86.0 °F 89.4 °F 68.0 °F 55% 29.94 in 10.0 mi North 8.1 mph - N/A   Partly Cloudy
10:53 PM 78.1 °F - 71.1 °F 79% 29.94 in 10.0 mi Calm Calm - N/A   Partly Cloudy
11:53 PM 81.0 °F 83.0 °F 66.0 °F 60% 29.94 in 10.0 mi Calm Calm - N/A   Clear